Powrót do katalogu

GSLV R/B

AktywnyPO
NORAD 54149·ROCKET BODY·🇮🇳 India

Wystrzelony Oct 22, 2022 z Satish Dhawan Space Centre

Loading…

Następne Przeloty (najbliższe 24 godziny)

TLE

ŚwieżeSource: Space-Track

Epoka: Sep 14, 2026, 20:45 UTC

1 54149U 22138AN  26257.86486456  .00001642  00000-0  13754-3 0  9994
2 54149  87.3738 102.8374 0021080 176.4565 183.6820 14.97582730212235

Śledź GSLV R/B w czasie rzeczywistym z AllMySat

Download on the App Store